www.pogodaiklimat.ru

Погода и климат >> Архив погоды >> Россия >> Якутия >> Усть-Нера


ПОГОДА в Усть-Нере

  • Прогноз погоды в Усть-Нере
  • Монитор погоды в Усть-Нере

АРХИВ ПОГОДЫ в Усть-Нере

Время (UTC), дата Ветер
(напр.,м/с)
 
Видим.   Явления Облачность Т
(С)
Тd
(С)
f
(%)
Тe
(С)
Тes
(С)
Комфортность P
(гПа)
Po
(гПа)
Тmin
(С)
Tmax
(С)
R
(мм)
R24
(мм)
S
(см)
06 9.01 З 1 20 км 10/0
[Cs]
-41.7 -45.0 70 -47 -47 опасность
обморожения
1018.8 944.0
09 9.01 СВ 2 10 км слаб. снег 10/0
[As op]
-38.3 -40.9 76 -47 -47 опасность
обморожения
1017.6 943.8 -38.3 0.2
12 9.01 штиль 0 4000 м слаб. снег 10/0
[As op]
-37.6 -40.5 74 -38 -38 опасность
обморожения
1017.5 944.0
15 9.01 штиль 0 4000 м слаб. снег 10/0
[As op]
-36.5 -39.4 74 -37 -37 опасность
обморожения
1017.5 944.4
18 9.01 З 1 10 км слаб. снег 10/0
[As op]
-36.6 -39.4 75 -41 -41 опасность
обморожения
1017.7 944.5
21 9.01 штиль 0 4000 м слаб. снег 10/0
[As op]
-36.3 -39.0 76 -36 -36 опасность
обморожения
1018.8 945.5 -38.4 1 21
00 10.01 ЮЗ 2 4000 м слаб. снег 10/0
[As op]
-35.7 -38.7 74 -44 -44 опасность
обморожения
1018.8 945.8
03 10.01 штиль 0 10 км слаб. снег 10/0
[As op]
-35.1 -38.0 75 -35 -35 опасность
обморожения
1018.6 945.8
06 10.01 штиль 0 10 км слаб. снег 10/0
[As op]
-34.9 -37.7 75 -35 -35 опасность
обморожения
1019.0 946.2
09 10.01 СВ 1 10 км слаб. снег 10/0
[As op Cs]
-38.9 -41.8 74 -44 -44 опасность
обморожения
1021.2 947.0 -34.5 0.8
12 10.01 штиль 0 20 км слаб. снег 10/0
[As op Cs]
-40.5 -43.3 74 -41 -41 опасность
обморожения
1022.2 947.6
15 10.01 штиль 0 10 км слаб. снег 10/0
[As op Cs]
-38.6 -41.4 75 -39 -39 опасность
обморожения
1022.2 948.1
18 10.01 штиль 0 20 км слаб. снег 10/0
[As op Cs]
-38.6 -41.4 75 -39 -39 опасность
обморожения
1023.3 949.1
21 10.01 штиль 0 20 км слаб. снег 10/0
[As op Cs]
-39.8 -42.8 73 -40 -40 опасность
обморожения
1025.1 950.4 -40.6 1 22
00 11.01 штиль 0 50 км в посл. час снег 6/0
[Ci fib]
-43.4 -46.3 73 -43 -43 опасность
обморожения
1027.8 951.7 -43.4
03 11.01 штиль 0 50 км 3/0
[Ci fib]
-44.3 -47.6 69 -44 -44 опасность
обморожения
1029.6 953.1
06 11.01 штиль 0 20 км ясно -46.2 -49.2 71 -46 -46 опасность
обморожения
1032.3 955.1
09 11.01 штиль 0 20 км ясно -46.7 -50.2 67 -47 -47 опасность
обморожения
1034.5 957.0 -43.4 0.0
12 11.01 штиль 0 20 км ясно -48.0 -51.2 69 -48 -48 опасность
обморожения
1037.0 958.8
15 11.01 штиль 0 20 км ясно -48.6 -52.4 64 -49 -49 опасность
обморожения
1038.3 959.8
18 11.01 штиль 0 20 км ясно -49.2 -52.4 69 -49 -49 опасность
обморожения
1040.0 961.3
21 11.01 штиль 0 20 км ясно -49.2 -52.4 69 -49 -49 опасность
обморожения
1041.4 962.5 -49.6 22
00 12.01 З 1 50 км ясно -48.3 -51.2 72 -54 -54 опасность
обморожения
1042.6 963.8
03 12.01 штиль 0 50 км ясно -47.7 -51.2 67 -48 -48 опасность
обморожения
1042.3 963.9
06 12.01 штиль 0 20 км ясно -48.9 -52.4 67 -49 -49 опасность
обморожения
1044.0 964.9
09 12.01 штиль 0 20 км 6/0
[Ci fib]
-48.1 -51.2 70 -48 -48 опасность
обморожения
1044.5 965.7 -47.7
12 12.01 штиль 0 10 км 10/0
[Cs]
-46.4 -49.2 73 -46 -46 опасность
обморожения
1043.9 965.7
15 12.01 штиль 0 10 км слаб. снег 10/0
[Cs]
-47.3 -50.2 72 -47 -47 опасность
обморожения
1044.2 965.6
18 12.01 штиль 0 10 км слаб. снег 10/0
[Cs]
-47.0 -50.2 69 -47 -47 опасность
обморожения
1044.0 965.6
21 12.01 З 1 10 км слаб. снег 10/0
[Cs]
-43.6 -46.9 70 -49 -49 опасность
обморожения
1042.7 965.5 -48.1 0.2 22
00 13.01 З 3 20 км {снег} 6/0
[Ci fib]
-45.1 -48.4 69 -58 -58 опасность
обморожения
1043.2 965.5
03 13.01 З 4 50 км 3/0
[Ci fib]
-45.1 -48.4 69 -60 -60 опасность
обморожения
1042.6 965.0
06 13.01 штиль 0 20 км ясно -46.2 -49.2 71 -46 -46 опасность
обморожения
1043.7 965.6
09 13.01 З 2 20 км ясно -46.9 -50.2 69 -57 -57 опасность
обморожения
1044.3 965.9 -45.1 0.0
12 13.01 З 2 20 км ясно -48.6 -52.4 64 -59 -59 опасность
обморожения
1045.0 966.0
15 13.01 штиль 0 20 км ясно -49.7 -52.4 73 -50 -50 опасность
обморожения
1045.3 966.0
18 13.01 штиль 0 20 км ясно -50.9 -53.7 72 -51 -51 опасность
обморожения
1045.9 966.0
21 13.01 штиль 0 20 км ясно -52.9 -55.2 76 -53 -53 опасность
обморожения
1046.7 966.1 -52.9 22
00 14.01 штиль 0 20 км ясно -53.4 -57.0 64 -53 -53 опасность
обморожения
1047.0 966.2 -53.8
03 14.01 штиль 0 20 км ясно -52.2 -55.2 70 -52 -52 опасность
обморожения
1046.4 966.1
06 14.01 штиль 0 20 км ясно -53.7 -57.0 67 -54 -54 опасность
обморожения
1046.9 966.1
09 14.01 штиль 0 20 км ясно -53.7 -57.0 67 -54 -54 опасность
обморожения
1046.9 966.1
12 14.01 штиль 0 20 км ясно -55.4 -59.4 61 -55 -55 опасность
обморожения
1047.9 966.3
15 14.01 штиль 0 20 км ясно -55.7 -59.4 63 -56 -56 опасность
обморожения
1047.7 966.1
18 14.01 штиль 0 20 км ясно -55.7 -59.4 63 -56 -56 опасность
обморожения
1047.3 965.7
21 14.01 штиль 0 20 км ясно -55.5 -59.4 61 -56 -56 опасность
обморожения
1047.1 965.5 -56.1 22
00 15.01 штиль 0 10 км дым {снег, туман} ясно -56.0 -59.4 65 -56 -56 опасность
обморожения
965.6
06 15.01 штиль 0 4000 м дымка ясно -55.3 -59.4 60 -55 -55 опасность
обморожения
1046.6 965.1
09 15.01 штиль 0 4000 м дымка ясно -55.7 -59.4 63 -56 -56 опасность
обморожения
1046.7 965.2 -55.1
12 15.01 штиль 0 4000 м дымка ясно -55.7 -59.4 63 -56 -56 опасность
обморожения
1046.7 965.2 -55.1
15 15.01 штиль 0 10 км ясно -55.6 -59.4 62 -56 -56 опасность
обморожения
1047.6 966.0
18 15.01 штиль 0 10 км ясно -55.1 -57.0 79 -55 -55 опасность
обморожения
1047.8 966.4
21 15.01 штиль 0 10 км ясно -55.1 -57.0 79 -55 -55 опасность
обморожения
1049.5 967.9 -55.8 22
00 16.01 штиль 0 20 км ясно -55.3 -59.4 60 -55 -55 опасность
обморожения
1051.1 969.3
03 16.01 штиль 0 50 км ясно -53.5 -57.0 65 -54 -53 опасность
обморожения
1050.5 969.4

 

Местоположение метеостанции Усть-Нера (Якутия, Россия): широта 64.53 долгота 143.10 высота над уровнем моря 519 м.

В архиве по умолчанию представлена погода в Усть-Нере за последнюю неделю. Архивные данные за месяц целиком и за предыдущие месяцы, начиная с января 2011 года, Вы можете получить, выбрав интересующий диапазон дат из раскрывающегося списка и нажав кнопку "Ввод!".


*Определитесь, кто Вы:
робот инопланетянин человек

Внимание! Время в таблицах - всемирное. Для получения местного времени необходимо прибавить поправку, которая равна 10 ч.

Смотрите также архив погоды в соседних городах и на ближайших метеорологических станциях:

Погода в Юртах (Якутия, Россия) (82 км)
Погода в Оймяконе (Якутия, Россия) (142 км)
Погода в Делянкире (Якутия, Россия) (144 км)
Погода в Агаякане (Якутия, Россия) (150 км)
Погода в Усть-Моме (Якутия, Россия) (214 км)
Погода в Восточной (Якутия, Россия) (224 км)
Погода в Сусумане (Магаданская область, Россия) (314 км)
Погода в Иэме (Якутия, Россия) (355 км)
Погода в Томпо (Якутия, Россия) (359 км)
Погода в Теплом Ключе (Якутия, Россия) (367 км)

Пояснения к столбцам:

Ветер - указаны скорость ветра в м/с - средняя за 10 мин, порывы в срок и между сроками (в фигурных скобках) и направление, откуда дует ветер: С - северный, СВ - северо-восточный, В - восточный, ЮВ - юго-восточный, Ю - южный, ЮЗ - юго-западный, З - западный, СЗ - северо-западный.
Видимость - горизонтальная дальность видимости в метрах или километрах. При видимости от 1 до 10 км при отсутствии осадков обычно наблюдается дымка, при ухудшении видимости до 1 км и менее - туман. В сухую погоду видимость может ухудшаться дымом, пылью или мглою.
Явления - указаны атмосферные явления, наблюдавшиеся в срок или в последний час перед сроком; фигурными скобками обозначены явления, наблюдавшиеся между сроками (за 1-3 часа до срока); квадратными скобками обозначены град или гололедные отложения с указанием их диаметра в мм.
Облачность - указаны через наклонную черту общая и нижняя облачность в баллах и высота нижней границы облаков в метрах; квадратными скобками обозначены формы облаков: Ci - перистые, Cs - перисто-слоистые, Cc - перисто-кучевые, Ac - высококучевые, As - высокослоистые, Sc - слоисто-кучевые, Ns - слоисто-дождевые, Cu - кучевые, Cb - кучево-дождевые. Подробнее классификацию облаков см. в Атласе облаков (PDF).
T - Температура воздуха - температура, измеренная на высоте 2 м над землей.
Td - Температура точки росы - температура, при понижении до которой содержащийся в воздухе водяной пар достигнет насыщения.
f - Относительная влажность воздуха - влажноcть воздуха, измеренная на высоте 2 м над землей.
Te - Эффективная температура - температура, которую ощущает одетый по сезону человек в тени. Характеристика душности погоды. При расчете учитывается влияние влажности воздуха и скорости ветра на теплоощущения человека.
Tes - Эффективная температура на солнце - температура, которую ощущает человек, с поправкой на солнечный нагрев. Характеристика знойности погоды. Зависит от высоты солнца над горизонтом, облачности и скорости ветра. Ночью, в пасмурную погоду, а также при ветре 12 м/с и более поправка равна нулю.
P - Атмосферное давление - приведенное к уровню моря атмосферное давление.
Po - Атмосферное давление - измеренное на уровне метеостанции атмосферное давление.
Tmin - Минимальная температура - минимум температуры воздуха на высоте 2 м над землей.
Tmax - Максимальная температура - максимум температуры воздуха на высоте 2 м над землей.
R - Количество осадков - Количество выпавших осадков за период времени, мм. При наведении курсора мыши на число - период времени, за который выпало указанное количество осадков.
R24 - Количество осадков - Количество выпавших осадков за 24 часа, мм.
S - Снежный покров - Высота снежного покрова, см. При наведении курсора мыши на число - состояние снежного покрова и степень покрытия местности в баллах.